Year,Month,Day,Hour,Minute,Value (Times are PST for temperature in C)
2014,12,09,01,14,10.70
2014,12,09,01,15,10.70
2014,12,09,01,16,10.70
2014,12,09,01,17,10.70
2014,12,09,01,18,10.70
2014,12,09,01,19,10.70
2014,12,09,01,20,10.70
2014,12,09,01,21,10.70
2014,12,09,01,22,10.70
2014,12,09,01,23,10.70
2014,12,09,01,24,10.80
2014,12,09,01,25,10.80
2014,12,09,01,26,10.80
2014,12,09,01,27,10.80
2014,12,09,01,28,10.80
2014,12,09,01,29,10.80
2014,12,09,01,30,10.80
2014,12,09,01,31,10.80
2014,12,09,01,32,10.80
2014,12,09,01,33,10.80
2014,12,09,01,34,10.80
2014,12,09,01,35,10.80
2014,12,09,01,36,10.80
2014,12,09,01,37,10.80
2014,12,09,01,38,10.80
2014,12,09,01,39,10.70
2014,12,09,01,40,10.70
2014,12,09,01,41,10.70
2014,12,09,01,42,10.80
2014,12,09,01,43,10.80
2014,12,09,01,44,10.80
2014,12,09,01,45,10.80
2014,12,09,01,46,10.90
2014,12,09,01,47,10.90
2014,12,09,01,48,10.90
2014,12,09,01,49,11.00
2014,12,09,01,50,11.00
2014,12,09,01,51,11.00
2014,12,09,01,52,11.00
2014,12,09,01,53,11.10
2014,12,09,01,56,11.10
2014,12,09,01,57,11.10
2014,12,09,01,58,11.10
2014,12,09,01,59,11.10
2014,12,09,02,00,11.10
2014,12,09,02,01,11.20
2014,12,09,02,02,11.20
2014,12,09,02,03,11.20
2014,12,09,02,04,11.20
2014,12,09,02,05,11.20
2014,12,09,02,06,11.20
2014,12,09,02,10,11.20
2014,12,09,02,11,11.30
2014,12,09,02,12,11.30
2014,12,09,02,13,11.30
2014,12,09,02,14,11.30
2014,12,09,02,15,11.30
2014,12,09,02,16,11.30
2014,12,09,02,17,11.30
2014,12,09,02,18,11.30
2014,12,09,02,19,11.40
2014,12,09,02,20,11.40
2014,12,09,02,21,11.40
2014,12,09,02,22,11.40
2014,12,09,02,23,11.40
2014,12,09,02,24,11.40
2014,12,09,05,57,13.00
2014,12,09,05,58,12.90
2014,12,09,05,59,12.90
2014,12,09,06,00,12.90
2014,12,09,06,01,12.90
2014,12,09,06,02,12.90
2014,12,09,06,03,12.90
2014,12,09,06,04,12.90
2014,12,09,06,05,12.90
2014,12,09,06,06,12.80
2014,12,09,06,07,12.80
2014,12,09,06,08,12.80
2014,12,09,06,09,12.70
2014,12,09,06,10,12.70
2014,12,09,06,11,12.70
2014,12,09,06,12,12.70
2014,12,09,06,13,12.60
2014,12,09,06,14,12.60
2014,12,09,06,15,12.60
2014,12,09,06,16,12.60
2014,12,09,06,17,12.50
2014,12,09,06,18,12.50
2014,12,09,06,22,12.40
2014,12,09,06,23,12.30
2014,12,09,06,24,12.30
2014,12,09,06,25,12.30
2014,12,09,06,26,12.20
2014,12,09,06,27,12.20
2014,12,09,06,28,12.20
2014,12,09,06,29,12.20
2014,12,09,06,30,12.10
2014,12,09,06,31,12.10
2014,12,09,06,32,12.10
2014,12,09,06,33,12.10
2014,12,09,06,34,12.10
2014,12,09,06,35,12.10
2014,12,09,06,36,12.00
2014,12,09,06,37,12.00
2014,12,09,06,38,11.90
2014,12,09,06,39,11.90
2014,12,09,06,40,11.90
2014,12,09,06,41,11.90
2014,12,09,06,42,11.90
2014,12,09,06,43,11.90
2014,12,09,06,44,11.90
2014,12,09,06,45,11.90
2014,12,09,06,46,11.80
2014,12,09,06,47,11.80
2014,12,09,06,48,11.80
2014,12,09,06,49,11.80
2014,12,09,06,50,11.80
2014,12,09,06,51,11.80
2014,12,09,06,52,11.80
2014,12,09,06,53,11.80
2014,12,09,06,54,11.80
2014,12,09,06,55,11.70
2014,12,09,06,56,11.70
2014,12,09,06,57,11.70
2014,12,09,06,58,11.70
2014,12,09,06,59,11.60
2014,12,09,07,00,11.60
2014,12,09,07,01,11.60
2014,12,09,07,02,11.60
2014,12,09,07,03,11.60
2014,12,09,07,04,11.60
2014,12,09,07,05,11.70
2014,12,09,07,06,11.70
2014,12,09,07,07,11.70
2014,12,09,07,08,11.80
2014,12,09,07,09,11.80
2014,12,09,07,10,11.80
2014,12,09,07,11,11.90
2014,12,09,07,12,11.90
2014,12,09,07,13,11.90
2014,12,09,07,14,12.00
2014,12,09,07,15,12.00
2014,12,09,07,16,12.00
2014,12,09,07,17,11.90
2014,12,09,07,18,11.90
2014,12,09,07,19,11.90
2014,12,09,07,20,11.90
2014,12,09,07,21,11.90
2014,12,09,07,22,11.90
2014,12,09,07,23,12.00
2014,12,09,07,24,12.00
2014,12,09,07,25,12.00
2014,12,09,07,26,12.00
2014,12,09,07,27,12.00
2014,12,09,07,28,12.00
2014,12,09,07,29,11.90
2014,12,09,07,30,11.90
2014,12,09,07,31,11.90
2014,12,09,07,32,11.80
2014,12,09,07,33,11.80
2014,12,09,07,34,11.80
2014,12,09,07,35,11.80
2014,12,09,07,36,11.70
2014,12,09,07,37,11.70
2014,12,09,07,38,11.70
2014,12,09,07,39,11.70
2014,12,09,07,40,11.70
2014,12,09,07,41,11.60
2014,12,09,07,42,11.60
2014,12,09,07,43,11.60
2014,12,09,07,44,11.60
2014,12,09,07,45,11.60
2014,12,09,07,46,11.60
2014,12,09,07,47,11.60
2014,12,09,07,48,11.60
2014,12,09,07,49,11.60
2014,12,09,07,50,11.50
2014,12,09,07,51,11.50
2014,12,09,07,52,11.50
2014,12,09,07,53,11.50
2014,12,09,07,54,11.50
2014,12,09,07,55,11.50
2014,12,09,07,56,11.50
2014,12,09,07,57,11.40
2014,12,09,07,58,11.40
2014,12,09,07,59,11.40
2014,12,09,08,00,11.40
2014,12,09,08,01,11.40
2014,12,09,08,02,11.40
2014,12,09,08,03,11.40
2014,12,09,08,04,11.40
2014,12,09,08,05,11.30
2014,12,09,08,06,11.30
2014,12,09,08,07,11.30
2014,12,09,08,08,11.30
2014,12,09,08,09,11.30
2014,12,09,08,10,11.20
2014,12,09,08,11,11.20
2014,12,09,08,12,11.20
2014,12,09,08,13,11.20
2014,12,09,08,14,11.20
2014,12,09,08,15,11.20
2014,12,09,08,16,11.20
2014,12,09,08,17,11.20
2014,12,09,08,18,11.20
2014,12,09,08,19,11.20
2014,12,09,08,20,11.20
2014,12,09,08,21,11.20
2014,12,09,08,22,11.20
2014,12,09,08,23,11.20
2014,12,09,08,24,11.10
2014,12,09,08,25,11.10
2014,12,09,08,26,11.10
2014,12,09,08,27,11.10
2014,12,09,08,28,11.10
2014,12,09,08,29,11.10
2014,12,09,08,30,11.10
2014,12,09,08,31,11.00
2014,12,09,08,32,11.00
2014,12,09,08,33,11.00
2014,12,09,08,34,10.90
2014,12,09,08,35,10.90
2014,12,09,08,36,10.90
2014,12,09,08,37,10.90
2014,12,09,08,38,10.90
2014,12,09,08,39,10.90
2014,12,09,08,40,10.90
2014,12,09,08,41,10.90
2014,12,09,08,42,10.90
2014,12,09,08,43,10.90
2014,12,09,08,44,10.90
2014,12,09,08,45,10.90
2014,12,09,08,46,10.90
2014,12,09,08,47,10.80
2014,12,09,08,48,10.80
2014,12,09,08,52,10.70
2014,12,09,08,53,10.70
2014,12,09,08,54,10.70
2014,12,09,08,55,10.70
2014,12,09,08,56,10.70
2014,12,09,08,57,10.70
2014,12,09,08,58,10.70
2014,12,09,08,59,10.70
2014,12,09,09,00,10.70
2014,12,09,09,01,10.70
2014,12,09,09,02,10.60
2014,12,09,09,03,10.60
2014,12,09,09,04,10.60
2014,12,09,09,05,10.60
2014,12,09,09,06,10.70
2014,12,09,09,07,10.70
2014,12,09,09,08,10.70
2014,12,09,09,09,10.70
2014,12,09,09,10,10.70
2014,12,09,09,11,10.80
2014,12,09,09,12,10.70
2014,12,09,09,13,10.70
2014,12,09,09,14,10.70
2014,12,09,09,15,10.80
2014,12,09,09,16,10.80
2014,12,09,09,17,10.80
2014,12,09,09,18,10.80
2014,12,09,09,19,10.80
2014,12,09,09,20,10.80
2014,12,09,09,21,10.90
2014,12,09,09,22,10.90
2014,12,09,09,23,11.00
2014,12,09,09,24,11.00
2014,12,09,09,25,11.00
2014,12,09,09,26,11.00
2014,12,09,09,27,11.10
2014,12,09,09,28,11.10
2014,12,09,09,29,11.10
2014,12,09,09,30,11.10
2014,12,09,09,31,11.10
2014,12,09,09,32,11.10
2014,12,09,09,33,11.10
2014,12,09,09,34,11.10
2014,12,09,09,35,11.10
2014,12,09,09,36,11.10
2014,12,09,09,37,11.00
2014,12,09,09,38,11.00
2014,12,09,09,39,11.00
2014,12,09,09,40,10.90
2014,12,09,09,41,10.90
2014,12,09,09,42,10.90
2014,12,09,09,43,10.90
2014,12,09,09,44,10.90
2014,12,09,09,45,10.90
2014,12,09,09,46,10.80
2014,12,09,09,47,10.80
2014,12,09,09,48,10.80
2014,12,09,09,49,10.80
2014,12,09,09,50,10.80
2014,12,09,09,51,10.80
2014,12,09,09,52,10.70
2014,12,09,09,53,10.70
2014,12,09,09,54,10.70
2014,12,09,09,55,10.70
2014,12,09,09,56,10.60
2014,12,09,09,57,10.60
2014,12,09,09,58,10.60
2014,12,09,09,59,10.60
2014,12,09,10,00,10.50
2014,12,09,10,01,10.50
2014,12,09,10,02,10.50
2014,12,09,10,03,10.50
2014,12,09,10,04,10.40
2014,12,09,10,05,10.40
2014,12,09,10,06,10.40
2014,12,09,10,07,10.40
2014,12,09,10,08,10.40
2014,12,09,10,09,10.40
2014,12,09,10,10,10.40
2014,12,09,10,11,10.40
2014,12,09,10,12,10.40
2014,12,09,10,13,10.40
2014,12,09,10,14,10.40
2014,12,09,10,15,10.40
2014,12,09,10,16,10.40
2014,12,09,10,17,10.30
2014,12,09,10,18,10.30
2014,12,09,10,19,10.30
2014,12,09,10,20,10.30
2014,12,09,10,21,10.30
2014,12,09,10,22,10.30
2014,12,09,10,23,10.30
2014,12,09,10,24,10.30
2014,12,09,10,25,10.30
2014,12,09,10,26,10.30
2014,12,09,10,27,10.30
2014,12,09,10,28,10.30
2014,12,09,10,29,10.20
2014,12,09,10,30,10.20
2014,12,09,10,31,10.20
2014,12,09,10,32,10.20
2014,12,09,10,33,10.20
2014,12,09,10,34,10.20
2014,12,09,10,35,10.20
2014,12,09,10,36,10.20
2014,12,09,10,37,10.20
2014,12,09,10,38,10.20
2014,12,09,10,39,10.10
2014,12,09,10,40,10.10
2014,12,09,10,41,10.10
2014,12,09,10,42,10.10
2014,12,09,10,43,10.10
2014,12,09,10,44,10.10
2014,12,09,10,45,10.10
2014,12,09,10,46,10.10
2014,12,09,10,47,10.10
2014,12,09,10,48,10.10
2014,12,09,10,49,10.10
2014,12,09,10,50,10.10
2014,12,09,10,51,10.10
2014,12,09,10,52,10.10
2014,12,09,10,53,10.10
2014,12,09,10,54,10.10
2014,12,09,10,55,10.10
2014,12,09,10,56,10.10
2014,12,09,10,57,10.10
2014,12,09,10,58,10.10
2014,12,09,10,59,10.00
2014,12,09,11,00,10.00
2014,12,09,11,01,10.00
2014,12,09,11,02,10.00
2014,12,09,11,03,10.00
2014,12,09,11,04,10.00
2014,12,09,11,05,10.00
2014,12,09,11,06,10.00
2014,12,09,11,07,10.00
2014,12,09,11,08,10.00
2014,12,09,11,09,9.90
2014,12,09,11,10,9.90
2014,12,09,11,11,9.90
2014,12,09,11,12,9.90
2014,12,09,11,13,9.90
2014,12,09,11,14,9.90
2014,12,09,11,15,9.90
2014,12,09,11,16,9.90
2014,12,09,11,17,9.90
2014,12,09,11,18,9.90
2014,12,09,11,19,9.90
2014,12,09,11,20,9.90
2014,12,09,11,21,9.90
2014,12,09,11,22,9.90
2014,12,09,11,23,9.90
2014,12,09,11,24,9.80
2014,12,09,11,25,9.80
2014,12,09,11,26,9.80
2014,12,09,11,27,9.80
2014,12,09,11,28,9.80
2014,12,09,11,29,9.80
2014,12,09,11,30,9.80
2014,12,09,11,31,9.80
2014,12,09,11,32,9.80
2014,12,09,11,33,9.80
2014,12,09,11,34,9.80
2014,12,09,11,35,9.80
2014,12,09,11,36,9.80
2014,12,09,11,37,9.80
2014,12,09,11,38,9.80
2014,12,09,11,39,9.70
2014,12,09,11,40,9.70
2014,12,09,11,41,9.70
2014,12,09,11,42,9.70
2014,12,09,11,43,9.70
2014,12,09,11,44,9.70
2014,12,09,11,45,9.70
2014,12,09,11,46,9.70
2014,12,09,11,47,9.70
2014,12,09,11,48,9.70
2014,12,09,11,49,9.70
2014,12,09,11,50,9.70
2014,12,09,11,51,9.70
2014,12,09,11,52,9.70
2014,12,09,11,53,9.70
2014,12,09,11,54,9.70
2014,12,09,11,55,9.70
2014,12,09,11,56,9.70
2014,12,09,11,57,9.70
2014,12,09,11,58,9.70
2014,12,09,11,59,9.70
2014,12,09,12,00,9.70
2014,12,09,12,01,9.70
2014,12,09,12,02,9.70
2014,12,09,12,03,9.70
2014,12,09,12,04,9.70
2014,12,09,12,05,9.70
2014,12,09,12,06,9.70
2014,12,09,12,07,9.70
2014,12,09,12,08,9.70
2014,12,09,12,09,9.70
2014,12,09,12,10,9.70
2014,12,09,12,11,9.70
2014,12,09,12,12,9.70
2014,12,09,12,13,9.70
2014,12,09,12,14,9.70
2014,12,09,12,15,9.70
2014,12,09,12,16,9.70
2014,12,09,12,17,9.70
2014,12,09,12,18,9.70
2014,12,09,12,19,9.70
2014,12,09,12,20,9.70
2014,12,09,12,21,9.70
2014,12,09,12,22,9.70
2014,12,09,12,23,9.60
2014,12,09,12,24,9.60
2014,12,09,12,25,9.60
2014,12,09,12,26,9.60
2014,12,09,12,27,9.60
2014,12,09,12,28,9.60
2014,12,09,12,29,9.60
2014,12,09,12,30,9.50
2014,12,09,12,31,9.50
2014,12,09,12,32,9.50
2014,12,09,12,33,9.50
2014,12,09,12,34,9.50
2014,12,09,12,35,9.40
2014,12,09,12,36,9.40
2014,12,09,12,37,9.40
2014,12,09,12,38,9.40
2014,12,09,12,39,9.40
2014,12,09,12,40,9.40
2014,12,09,12,41,9.40
2014,12,09,12,42,9.30
2014,12,09,12,43,9.30
2014,12,09,12,44,9.30
2014,12,09,12,45,9.30
2014,12,09,12,46,9.30
2014,12,09,12,47,9.30
2014,12,09,12,48,9.30
2014,12,09,12,49,9.30
2014,12,09,12,50,9.30
2014,12,09,12,51,9.30
2014,12,09,12,52,9.30
2014,12,09,12,53,9.30
2014,12,09,12,54,9.30
2014,12,09,12,55,9.30
2014,12,09,12,56,9.30
2014,12,09,12,57,9.30
2014,12,09,12,58,9.30
2014,12,09,12,59,9.30
2014,12,09,13,00,9.30
2014,12,09,13,01,9.30
2014,12,09,13,02,9.30
2014,12,09,13,03,9.40
2014,12,09,13,04,9.40
2014,12,09,13,05,9.40
2014,12,09,13,06,9.40
2014,12,09,13,07,9.40
2014,12,09,13,08,9.40
2014,12,09,13,09,9.40
2014,12,09,13,10,9.40
2014,12,09,13,11,9.50
2014,12,09,13,12,9.50
2014,12,09,13,13,9.60
2014,12,09,13,14,9.60
2014,12,09,13,15,9.60
2014,12,09,13,16,9.60
2014,12,09,13,17,9.60
2014,12,09,13,18,9.60
2014,12,09,13,19,9.60
2014,12,09,13,20,9.70
2014,12,09,13,21,9.70
2014,12,09,13,22,9.70
2014,12,09,13,23,9.70
2014,12,09,13,24,9.70
2014,12,09,13,25,9.70
2014,12,09,13,26,9.70
2014,12,09,13,27,9.70
2014,12,09,13,28,9.70
2014,12,09,13,29,9.80
2014,12,09,13,30,9.80
2014,12,09,13,31,9.80
2014,12,09,13,32,9.80
2014,12,09,13,33,9.80
2014,12,09,13,34,9.80
2014,12,09,13,35,9.80
2014,12,09,13,36,9.80
2014,12,09,13,37,9.80
2014,12,09,13,38,9.80
2014,12,09,13,39,9.80
2014,12,09,13,40,9.80
2014,12,09,13,41,9.80
2014,12,09,13,42,9.80
2014,12,09,13,43,9.80
2014,12,09,13,44,9.80
2014,12,09,13,45,9.80
2014,12,09,13,46,9.90
2014,12,09,13,47,9.90
2014,12,09,13,48,9.90
2014,12,09,13,49,9.80
2014,12,09,13,50,9.80
2014,12,09,13,51,9.80
2014,12,09,13,52,9.90
2014,12,09,13,53,9.90
2014,12,09,13,54,9.90
2014,12,09,13,55,9.90
2014,12,09,13,56,9.90
2014,12,09,13,57,9.90
2014,12,09,13,58,9.90
2014,12,09,13,59,10.00
2014,12,09,14,00,10.00
2014,12,09,14,01,10.00
2014,12,09,14,02,10.10
2014,12,09,14,03,10.10
2014,12,09,14,04,10.10
2014,12,09,14,05,10.10
2014,12,09,14,06,10.10
2014,12,09,14,07,10.10
2014,12,09,14,08,10.10
2014,12,09,14,09,10.10
2014,12,09,14,10,10.10
2014,12,09,14,11,10.10
2014,12,09,14,12,10.10
2014,12,09,14,13,10.10
2014,12,09,14,14,10.10
2014,12,09,14,15,10.10
2014,12,09,14,16,10.10
2014,12,09,14,17,10.10
2014,12,09,14,18,10.00
2014,12,09,14,19,10.00
2014,12,09,14,20,10.00
2014,12,09,14,21,10.00
2014,12,09,14,22,10.00
2014,12,09,14,23,10.00
2014,12,09,14,24,10.00
2014,12,09,14,25,9.90
2014,12,09,14,26,9.90
2014,12,09,14,27,9.90
2014,12,09,14,28,9.90
2014,12,09,14,29,9.90
2014,12,09,14,30,9.90
2014,12,09,14,31,9.90
2014,12,09,14,32,9.90
2014,12,09,14,33,9.90
2014,12,09,14,34,10.00
2014,12,09,14,35,10.00
2014,12,09,14,36,10.00
2014,12,09,14,37,10.00
2014,12,09,14,38,10.00
2014,12,09,14,39,10.00
2014,12,09,14,40,9.90
2014,12,09,14,41,10.00
2014,12,09,14,42,10.00
2014,12,09,14,43,9.90
2014,12,09,14,44,9.90
2014,12,09,14,45,10.00
2014,12,09,14,46,10.00
2014,12,09,14,47,10.00
2014,12,09,14,48,10.00
2014,12,09,14,49,10.00
2014,12,09,14,50,10.00
2014,12,09,14,51,10.00
2014,12,09,14,52,10.00
2014,12,09,14,53,10.00
2014,12,09,14,54,10.00
2014,12,09,14,55,10.00
2014,12,09,14,56,10.00
2014,12,09,14,57,10.00
2014,12,09,14,58,10.00
2014,12,09,14,59,10.00
2014,12,09,15,00,10.00
2014,12,09,15,01,10.00
2014,12,09,15,02,9.90
2014,12,09,15,03,9.90
2014,12,09,15,04,9.90
2014,12,09,15,05,9.90
2014,12,09,15,06,9.90
2014,12,09,15,07,9.90
2014,12,09,15,08,9.90
2014,12,09,15,09,9.90
2014,12,09,15,10,10.00
2014,12,09,15,11,10.00
2014,12,09,15,12,10.10
2014,12,09,15,13,10.10
2014,12,09,15,14,10.10
2014,12,09,15,15,10.10
2014,12,09,15,16,10.10
2014,12,09,15,17,10.20
2014,12,09,15,18,10.20
2014,12,09,15,19,10.20
2014,12,09,15,20,10.20
2014,12,09,15,21,10.20
2014,12,09,15,22,10.20
2014,12,09,15,23,10.30
2014,12,09,15,24,10.30
2014,12,09,15,25,10.30
2014,12,09,15,26,10.30
2014,12,09,15,27,10.30
2014,12,09,15,28,10.30
2014,12,09,15,29,10.30
2014,12,09,15,30,10.30
2014,12,09,15,31,10.30
2014,12,09,15,32,10.30
2014,12,09,15,33,10.30
2014,12,09,15,34,10.30
2014,12,09,15,35,10.40
2014,12,09,15,36,10.40
2014,12,09,15,37,10.40
2014,12,09,15,38,10.40
2014,12,09,15,39,10.40
2014,12,09,15,40,10.40
2014,12,09,15,41,10.40
2014,12,09,15,42,10.40
2014,12,09,15,43,10.40
2014,12,09,15,44,10.40
2014,12,09,15,45,10.40
2014,12,09,15,46,10.40
2014,12,09,15,47,10.40
2014,12,09,15,48,10.40
2014,12,09,15,49,10.40
2014,12,09,15,50,10.40
2014,12,09,15,51,10.40
2014,12,09,15,52,10.40
2014,12,09,15,53,10.50
2014,12,09,15,54,10.50
2014,12,09,15,55,10.50
2014,12,09,15,56,10.50
2014,12,09,15,57,10.50
2014,12,09,15,58,10.60
2014,12,09,15,59,10.60
2014,12,09,16,00,10.60
2014,12,09,16,01,10.60
2014,12,09,16,02,10.60
2014,12,09,16,03,10.60
2014,12,09,16,04,10.60
2014,12,09,16,05,10.50
2014,12,09,16,06,10.50
2014,12,09,16,07,10.50
2014,12,09,16,08,10.50
2014,12,09,16,09,10.40
2014,12,09,16,10,10.40
2014,12,09,16,11,10.40
2014,12,09,16,12,10.40
2014,12,09,16,13,10.30
2014,12,09,16,14,10.30
2014,12,09,16,15,10.30
2014,12,09,16,16,10.30
2014,12,09,16,17,10.30
2014,12,09,16,18,10.30
2014,12,09,16,19,10.20
2014,12,09,16,20,10.20
2014,12,09,16,21,10.20
2014,12,09,16,22,10.20
2014,12,09,16,23,10.20
2014,12,09,16,24,10.20
2014,12,09,16,25,10.10
2014,12,09,16,26,10.10
2014,12,09,16,27,10.10
2014,12,09,16,28,10.10
2014,12,09,16,29,10.10
2014,12,09,16,30,10.10
2014,12,09,16,31,10.10
2014,12,09,16,32,10.00
2014,12,09,16,33,10.00
2014,12,09,16,34,10.00
2014,12,09,16,35,10.00
2014,12,09,16,36,9.90
2014,12,09,16,37,9.90
2014,12,09,16,38,9.90
2014,12,09,16,39,9.90
2014,12,09,16,40,9.90
2014,12,09,16,41,9.90
2014,12,09,16,42,9.90
2014,12,09,16,43,9.90
2014,12,09,16,44,9.90
2014,12,09,16,45,9.80
2014,12,09,16,46,9.80
2014,12,09,16,47,9.80
2014,12,09,16,48,9.80
2014,12,09,16,49,9.80
2014,12,09,16,50,9.80
2014,12,09,16,51,9.80
2014,12,09,16,52,9.80
2014,12,09,16,53,9.80
2014,12,09,16,54,9.80
2014,12,09,16,55,9.80
2014,12,09,16,56,9.90
2014,12,09,16,57,9.80
2014,12,09,16,58,9.90
2014,12,09,16,59,9.90
2014,12,09,17,00,9.90
2014,12,09,17,01,9.90
2014,12,09,17,02,9.90
2014,12,09,17,03,9.90
2014,12,09,17,04,9.90
2014,12,09,17,05,9.90
2014,12,09,17,06,9.90
2014,12,09,17,07,9.90
2014,12,09,17,08,9.90
2014,12,09,17,09,9.90
2014,12,09,17,10,9.90
2014,12,09,17,11,9.90
2014,12,09,17,12,9.90
2014,12,09,17,13,9.90
2014,12,09,17,14,9.90
2014,12,09,17,15,9.90
2014,12,09,17,16,9.90
2014,12,09,17,17,9.90
2014,12,09,17,18,9.90
2014,12,09,17,19,9.90
2014,12,09,17,20,9.90
2014,12,09,17,21,9.90
2014,12,09,17,22,9.90
2014,12,09,17,23,9.90
2014,12,09,17,24,9.90
2014,12,09,17,25,9.90
2014,12,09,17,26,9.90
2014,12,09,17,27,9.90
2014,12,09,17,28,9.90
2014,12,09,17,29,9.90
2014,12,09,17,30,9.90
2014,12,09,17,31,9.90
2014,12,09,17,32,9.80
2014,12,09,17,33,9.80
2014,12,09,17,34,9.80
2014,12,09,17,35,9.80
2014,12,09,17,36,9.80
2014,12,09,17,37,9.80
2014,12,09,17,38,9.80
2014,12,09,17,39,9.80
2014,12,09,17,40,9.80
2014,12,09,17,41,9.80
2014,12,09,17,42,9.80
2014,12,09,17,43,9.80
2014,12,09,17,44,9.80
2014,12,09,17,45,9.80
2014,12,09,17,46,9.80
2014,12,09,17,47,9.80
2014,12,09,17,48,9.80
2014,12,09,17,49,9.80
2014,12,09,17,50,9.80
2014,12,09,17,51,9.80
2014,12,09,17,52,9.80
2014,12,09,17,53,9.80
2014,12,09,17,54,9.80
2014,12,09,17,55,9.80
2014,12,09,17,56,9.80
2014,12,09,17,57,9.80
2014,12,09,17,58,9.80
2014,12,09,17,59,9.80
2014,12,09,18,00,9.80
2014,12,09,18,01,9.80
2014,12,09,18,02,9.80
2014,12,09,18,03,9.80
2014,12,09,18,04,9.80
2014,12,09,18,05,9.80
2014,12,09,18,06,9.80
2014,12,09,18,07,9.80
2014,12,09,18,08,9.80
2014,12,09,18,09,9.80
2014,12,09,18,10,9.70
2014,12,09,18,11,9.70
2014,12,09,18,12,9.70
2014,12,09,18,13,9.70
2014,12,09,18,14,9.70
2014,12,09,18,15,9.70
2014,12,09,18,16,9.70
2014,12,09,18,17,9.70
2014,12,09,18,18,9.70
2014,12,09,18,19,9.70
2014,12,09,18,20,9.70
2014,12,09,18,21,9.70
2014,12,09,18,22,9.70
2014,12,09,18,23,9.70
2014,12,09,18,24,9.70
2014,12,09,18,25,9.70
2014,12,09,18,26,9.70
2014,12,09,18,27,9.70
2014,12,09,18,28,9.70
2014,12,09,18,29,9.70
2014,12,09,18,30,9.70
2014,12,09,18,31,9.70
2014,12,09,18,32,9.70
2014,12,09,18,33,9.70
2014,12,09,18,34,9.70
2014,12,09,18,35,9.70
2014,12,09,18,36,9.70
2014,12,09,18,37,9.70
2014,12,09,18,38,9.70
2014,12,09,18,39,9.70
2014,12,09,18,40,9.70
2014,12,09,18,41,9.70
2014,12,09,18,42,9.70
2014,12,09,18,43,9.80
2014,12,09,18,44,9.80
2014,12,09,18,45,9.80
2014,12,09,18,46,9.80
2014,12,09,18,47,9.80
2014,12,09,18,48,9.80
2014,12,09,18,49,9.80
2014,12,09,18,50,9.80
2014,12,09,18,51,9.80
2014,12,09,18,52,9.80
2014,12,09,18,53,9.80
2014,12,09,18,54,9.80
2014,12,09,18,55,9.80
2014,12,09,18,56,9.80
2014,12,09,18,57,9.80
2014,12,09,18,58,9.80
2014,12,09,18,59,9.80
2014,12,09,19,00,9.80
2014,12,09,19,01,9.80
2014,12,09,19,02,9.80
2014,12,09,19,03,9.80
2014,12,09,19,04,9.70
2014,12,09,19,05,9.70
2014,12,09,19,06,9.70
2014,12,09,19,07,9.70
2014,12,09,19,08,9.70
2014,12,09,19,09,9.70
2014,12,09,19,10,9.70
2014,12,09,19,11,9.70
2014,12,09,19,12,9.70
2014,12,09,19,13,9.60
2014,12,09,19,14,9.70
2014,12,09,19,15,9.70
2014,12,09,19,16,9.60
2014,12,09,19,17,9.60
2014,12,09,19,18,9.60
2014,12,09,19,19,9.70
2014,12,09,19,20,9.60
2014,12,09,19,21,9.60
2014,12,09,19,22,9.60
2014,12,09,19,23,9.60
2014,12,09,19,24,9.70
2014,12,09,19,25,9.70
2014,12,09,19,26,9.70
2014,12,09,19,27,9.70
2014,12,09,19,28,9.70
2014,12,09,19,29,9.70
2014,12,09,19,30,9.70
2014,12,09,19,31,9.70
2014,12,09,19,32,9.70
2014,12,09,19,33,9.70
2014,12,09,19,34,9.60
2014,12,09,19,35,9.60
2014,12,09,19,36,9.60
2014,12,09,19,37,9.60
2014,12,09,19,38,9.60
2014,12,09,19,39,9.60
2014,12,09,19,40,9.60
2014,12,09,19,41,9.60
2014,12,09,19,42,9.60
2014,12,09,19,43,9.60
2014,12,09,19,44,9.60
2014,12,09,19,45,9.60
2014,12,09,19,46,9.60
2014,12,09,19,47,9.60
2014,12,09,19,48,9.60
2014,12,09,19,49,9.60
2014,12,09,19,50,9.60
2014,12,09,19,51,9.60
2014,12,09,19,52,9.60
2014,12,09,19,53,9.70
2014,12,09,19,54,9.70
2014,12,09,19,55,9.70
2014,12,09,19,56,9.70
2014,12,09,19,57,9.70
2014,12,09,19,58,9.70
2014,12,09,19,59,9.70
2014,12,09,20,00,9.80
2014,12,09,20,01,9.80
2014,12,09,20,02,9.80
2014,12,09,20,03,9.80
2014,12,09,20,04,9.80
2014,12,09,20,05,9.80
2014,12,09,20,06,9.80
2014,12,09,20,07,9.80
2014,12,09,20,08,9.80
2014,12,09,20,09,9.80
2014,12,09,20,10,9.80
2014,12,09,20,11,9.80
2014,12,09,20,12,9.80
2014,12,09,20,13,9.80
2014,12,09,20,14,9.80
2014,12,09,20,15,9.80
2014,12,09,20,16,9.80
2014,12,09,20,17,9.80
2014,12,09,20,18,9.80
2014,12,09,20,19,9.80
2014,12,09,20,20,9.80
2014,12,09,20,21,9.80
2014,12,09,20,22,9.80
2014,12,09,20,23,9.80
2014,12,09,20,24,9.80
2014,12,09,20,25,9.80
2014,12,09,20,26,9.80
2014,12,09,20,27,9.80
2014,12,09,20,28,9.80
2014,12,09,20,29,9.80
2014,12,09,20,30,9.80
2014,12,09,20,31,9.80
2014,12,09,20,32,9.80
2014,12,09,20,33,9.80
2014,12,09,20,34,9.80
2014,12,09,20,35,9.80
2014,12,09,20,36,9.80
2014,12,09,20,37,9.80
2014,12,09,20,38,9.80
2014,12,09,20,39,9.80
2014,12,09,20,40,9.80
2014,12,09,20,41,9.80
2014,12,09,20,42,9.80
2014,12,09,20,43,9.80
2014,12,09,20,44,9.80
2014,12,09,20,45,9.80
2014,12,09,20,46,9.80
2014,12,09,20,47,9.80
2014,12,09,20,48,9.80
2014,12,09,20,49,9.90
2014,12,09,20,50,9.80
2014,12,09,20,51,9.90
2014,12,09,20,52,9.90
2014,12,09,20,53,9.90
2014,12,09,20,54,9.90
2014,12,09,20,55,9.90
2014,12,09,20,56,9.90
2014,12,09,20,57,9.90
2014,12,09,20,58,9.90
2014,12,09,20,59,9.90
2014,12,09,21,00,9.90
2014,12,09,21,01,9.90
2014,12,09,21,02,9.90
2014,12,09,21,03,9.90
2014,12,09,21,04,9.90
2014,12,09,21,05,9.90
2014,12,09,21,06,9.90
2014,12,09,21,07,9.90
2014,12,09,21,08,9.90
2014,12,09,21,09,9.90
2014,12,09,21,10,9.90
2014,12,09,21,11,9.90
2014,12,09,21,12,9.90
